Theta_e
342 343 344 344 346 349 350 350 350 351 351 351 352 352 351 350 349 346 344 344 346 346 344 348 347 353 347 350 347 346 342 341
342 342 343 344 345 347 350 349 349 351 351 349 349 348 348 347 348 344 341 339 339 340 339 341 343 344 343 341 341 341 341 341
344 345 345 344 343 347 348 349 349 350 348 348 348 347 346 345 345 343 339 336 337 339 339 340 342 341 341 339 337 338 337 337
342 343 343 343 343 345 347 347 346 348 344 345 345 344 344 344 343 344 341 336 337 338 337 339 340 341 340 339 336 336 336 335
340 344 342 342 342 343 343 339 344 344 342 343 344 343 343 342 343 344 342 338 337 337 337 336 338 339 339 339 338 336 336 336
330 342 343 341 340 340 341 342 341 340 339 340 341 342 342 340 341 343 343 337 336 336 338 337 339 339 339 338 337 335 334 332
326 338 342 339 339 339 340 341 340 340 338 337 338 339 339 339 339 340 342 341 338 338 342 341 343 342 339 338 335 335 334 335
335 339 339 339 339 339 340 340 339 338 341 341 339 341 340 342 342 342 343 343 342 343 345 345 343 340 339 338 335 335 334 333
336 338 338 338 337 337 338 333 332 335 340 342 338 337 340 342 343 346 344 344 346 344 344 343 341 339 338 337 334 332 329 329
333 338 336 336 336 335 335 334 332 334 336 340 342 341 345 345 348 349 347 346 346 346 343 341 342 340 338 334 331 328 327 327
329 332 335 336 335 335 334 334 332 332 333 339 340 342 341 341 343 344 346 347 348 346 342 341 341 339 336 334 332 328 325 325
323 329 330 332 334 335 334 334 330 329 333 335 335 335 337 338 340 343 345 347 347 345 343 339 339 337 334 332 332 328 325 321
307 324 329 331 333 331 332 331 330 331 334 335 335 335 337 340 340 342 342 341 342 343 338 336 335 336 333 332 330 327 325 324
302 321 326 328 330 329 330 329 330 331 334 337 335 336 337 337 337 338 337 337 336 335 336 335 332 331 330 327 323 323 322 323
304 327 332 330 329 327 328 330 330 336 336 335 336 330 334 336 332 337 333 333 331 328 328 327 325 324 324 324 321 318 315 315
303 332 336 337 337 334 333 335 337 337 338 336 335 336 339 335 334 336 331 328 326 326 323 321 320 319 318 315 312 311 310 310
310 330 334 336 335 338 340 338 335 334 330 328 329 333 334 333 330 328 325 322 318 316 314 313 312 312 310 308 307 306 305 305
321 331 329 328 334 335 334 332 328 325 323 322 321 320 321 318 317 315 313 313 311 311 310 308 306 305 304 304 303 303 302 301
329 330 332 335 334 331 327 323 320 318 318 318 315 314 314 313 312 311 310 310 309 308 306 305 304 302 302 300 300 301 300 299
331 332 331 329 326 323 319 317 315 315 314 312 312 311 310 309 308 308 308 306 306 305 304 303 302 301 299 299 299 299 298 299
Wind_Speed
21 18 20 20 16 13 12 13 12 13 11 8 5 4 5 4 6 5 5 4 4 3 3 3 3 7 3 5 3 3 5 4
18 16 15 17 18 16 15 13 13 14 10 8 8 7 6 5 5 6 4 3 4 4 3 4 4 3 4 4 3 4 5 5
19 18 14 14 15 16 16 16 14 12 13 10 9 8 7 6 5 5 5 4 4 3 4 3 4 3 4 4 4 4 5 5
18 17 17 15 14 16 16 15 13 14 11 12 9 7 8 7 7 7 8 6 5 4 4 5 4 5 4 4 5 5 6 4
10 17 18 19 15 16 16 14 13 13 14 13 11 11 9 8 8 10 10 9 7 6 5 4 6 3 4 4 4 4 4 3
8 11 16 15 14 17 15 13 15 13 12 11 8 8 9 8 7 7 10 9 8 5 4 4 3 4 4 4 3 3 3 3
9 11 18 20 19 17 16 16 17 15 12 7 6 6 5 5 4 4 8 9 8 5 4 4 4 3 3 3 1 1 0 1
9 16 14 15 18 18 16 14 10 6 7 5 4 5 5 5 5 7 8 8 9 6 3 5 5 4 3 2 2 1 3 3
6 11 15 14 13 15 15 11 8 7 5 6 6 5 3 3 4 6 6 5 5 6 3 4 4 3 3 3 2 0 2 3
13 11 14 17 20 16 12 10 7 7 4 3 3 4 3 3 3 4 7 6 7 9 6 5 5 4 4 2 2 1 1 0
14 18 16 15 16 16 15 14 10 5 3 4 4 5 4 2 4 3 3 2 2 3 2 4 5 3 3 1 2 3 1 1
17 18 16 16 18 15 15 12 10 6 7 5 4 4 7 3 3 3 5 6 5 4 7 4 5 3 4 2 2 2 2 1
18 18 20 19 15 16 15 11 9 8 7 7 4 3 2 2 2 5 6 6 9 4 3 4 3 4 3 6 4 4 2 1
12 17 18 16 12 9 10 12 9 8 7 7 7 5 4 4 4 6 10 6 5 3 3 6 7 6 7 6 6 8 5 4
11 17 15 14 15 13 10 9 5 6 5 4 5 5 2 10 10 3 3 6 3 4 5 8 7 7 9 9 8 8 6 5
12 18 18 18 17 17 15 9 10 9 8 7 4 5 4 5 8 8 5 6 4 8 7 11 11 12 9 7 5 5 5 5
11 14 15 17 15 13 13 15 13 11 11 10 10 9 12 10 9 8 5 3 8 11 12 12 12 11 7 6 6 8 6 5
10 14 14 11 12 13 14 16 17 14 14 11 12 14 14 15 10 8 7 9 12 12 11 11 9 8 10 10 6 6 6 5
15 15 15 16 15 14 14 17 18 16 15 13 14 15 15 12 10 8 10 10 10 11 10 11 11 10 8 7 7 6 6 5
18 19 18 17 15 14 13 15 18 15 15 14 14 14 14 13 13 12 11 11 11 11 10 10 9 8 7 7 6 5 5 6
Wind_Direction
159 168 179 169 157 155 158 151 148 151 158 152 154 142 155 149 148 152 157 158 178 182 200 206 203 218 221 231 252 239 240 240
163 164 172 164 164 159 157 155 152 157 152 155 160 165 172 170 165 165 161 167 184 193 206 213 203 204 216 228 224 242 254 256
169 173 156 153 164 161 162 158 161 151 154 159 167 168 173 166 167 176 165 179 198 195 217 206 212 199 214 219 223 233 244 247
176 161 161 164 163 166 165 166 160 157 158 161 166 171 173 172 180 185 183 180 192 201 213 223 227 214 217 216 216 222 238 231
182 174 167 168 171 159 168 158 158 163 169 172 176 180 177 180 186 184 191 190 195 198 197 217 232 224 234 248 260 269 273 289
198 177 164 163 157 166 164 168 170 170 178 189 187 183 175 179 183 184 191 190 196 204 199 212 217 222 219 217 206 231 235 259
196 166 168 163 162 163 173 177 179 181 179 174 164 157 179 159 162 190 211 196 181 191 207 191 190 206 200 184 118 159 244 295
181 152 160 160 163 173 173 180 174 162 161 130 127 171 193 150 170 196 189 208 178 178 200 191 161 176 122 106 131 133 191 259
160 153 153 154 170 170 178 171 165 160 155 154 178 185 158 149 161 218 183 214 176 161 161 212 154 143 145 130 117 120 354 39
158 164 162 169 171 178 177 185 184 187 176 148 148 151 118 138 157 213 217 204 187 180 168 215 145 123 138 124 132 92 9 150
167 168 178 172 175 181 186 190 194 175 141 102 80 74 64 147 168 156 79 227 112 116 145 188 130 133 108 132 156 146 184 316
171 173 175 180 189 190 194 186 188 150 141 129 140 154 173 200 150 102 114 107 50 21 215 150 128 111 107 100 90 85 116 283
167 175 180 189 180 188 193 191 197 140 145 150 133 119 37 8 3 116 59 70 51 205 139 101 92 81 79 62 51 43 62 35
157 177 174 182 186 189 190 189 191 132 147 159 165 144 121 55 355 59 64 50 20 333 91 96 67 61 63 67 61 54 41 50
139 155 169 174 176 183 186 182 139 122 169 171 182 210 97 94 47 38 3 67 205 73 64 69 65 68 60 56 51 47 34 43
160 155 162 171 175 180 178 142 108 117 130 114 101 117 123 107 126 104 122 161 138 103 83 67 57 55 53 55 53 52 47 42
152 151 154 161 165 166 142 119 120 113 100 91 76 87 101 97 76 84 108 116 81 67 67 67 57 55 56 61 55 38 35 19
143 140 133 126 125 114 109 110 104 104 94 91 89 88 87 88 89 88 80 68 73 73 69 70 72 59 45 40 40 24 25 6
131 124 125 122 117 106 108 101 101 98 95 94 98 91 92 101 105 98 79 77 79 82 78 71 59 51 40 39 29 21 17 352
127 124 120 111 104 105 106 107 96 98 98 101 91 93 87 82 79 74 74 78 72 75 74 71 62 48 36 37 26 3 1 356